IRNSS-1I

Last updated on Wed Oct 29 2025 00:02:49 GMT+0000 (Coordinated Universal Time)

1 43286U 18035A 25300.95461472 .00000105 00000+0 00000+0 0 9992 2 43286 29.0407 77.8107 0021361 179.7789 177.7558 1.00277150 27741
UTC large
Height (km)
Speed (km/s)
/
Latitude / Longitude
Inclination (degrees)
Orbital Period (minutes)
Azimuth
Elevation
Range (km)
Doppler Factor

Next 0 passes for location: London (51.5072 / 0.1276)

Sorry there are no passes over London.